Time,TemperatureF,DewpointF,PressureIn,WindDirection,WindDirectionDegrees,WindSpeedMPH,WindSpeedGustMPH,Humidity,HourlyPrecipIn,Conditions,Clouds,dailyrainin,SoftwareType,DateUTC
2013-01-21 00:02:00,31.0,29.0,29.26,East,89,1.0,2.0,94,0.00,,,0.02,,2013-01-21 00:02:00,
2013-01-21 00:12:00,31.0,29.0,29.26,East,89,1.0,2.0,94,0.00,,,0.02,,2013-01-21 00:12:00,
2013-01-21 00:22:00,31.0,29.0,29.26,NNE,27,2.0,3.0,94,0.00,,,0.02,,2013-01-21 00:22:00,
2013-01-21 00:32:00,31.0,29.0,29.26,NNE,27,1.0,3.0,94,0.00,,,0.02,,2013-01-21 00:32:00,
2013-01-21 00:42:00,31.0,29.0,29.26,NNE,27,1.0,3.0,94,0.00,,,0.02,,2013-01-21 00:42:00,
2013-01-21 00:53:00,31.0,29.0,29.26,NNE,27,1.0,3.0,94,0.00,,,0.02,,2013-01-21 00:53:00,
2013-01-21 01:02:00,31.0,29.0,29.26,NNE,27,1.0,2.0,94,0.00,,,0.02,,2013-01-21 01:02:00,
2013-01-21 01:12:00,31.0,29.0,29.26,NNE,27,1.0,2.0,94,0.00,,,0.02,,2013-01-21 01:12:00,
2013-01-21 01:22:00,31.0,29.0,29.26,NNE,27,0.0,1.0,94,0.00,,,0.02,,2013-01-21 01:22:00,
2013-01-21 01:32:00,31.0,31.0,29.25,NNE,27,1.0,2.0,98,0.00,,,0.02,,2013-01-21 01:32:00,
2013-01-21 01:42:00,31.0,31.0,29.25,NNE,27,1.0,2.0,98,0.00,,,0.02,,2013-01-21 01:42:00,
2013-01-21 01:53:00,31.0,30.0,29.26,NW,321,0.0,2.0,97,0.00,,,0.02,,2013-01-21 01:53:00,
2013-01-21 02:02:00,31.0,29.0,29.25,NW,321,0.0,3.0,94,0.00,,,0.02,,2013-01-21 02:02:00,
2013-01-21 02:11:00,31.0,29.0,29.25,NW,321,0.0,3.0,94,0.00,,,0.02,,2013-01-21 02:11:00,
2013-01-21 02:22:00,31.0,30.0,29.25,NW,308,1.0,3.0,97,0.00,,,0.02,,2013-01-21 02:22:00,
2013-01-21 02:32:00,31.0,29.0,29.25,NW,308,1.0,3.0,94,0.00,,,0.02,,2013-01-21 02:32:00,
2013-01-21 02:42:00,31.0,29.0,29.25,NW,308,1.0,3.0,94,0.00,,,0.02,,2013-01-21 02:42:00,
2013-01-21 02:53:00,31.0,29.0,29.25,NW,308,1.0,3.0,94,0.00,,,0.02,,2013-01-21 02:53:00,
2013-01-21 03:02:00,31.0,29.0,29.25,NW,308,0.0,3.0,94,0.00,,,0.02,,2013-01-21 03:02:00,
2013-01-21 03:12:00,31.0,29.0,29.25,NW,308,0.0,3.0,94,0.00,,,0.02,,2013-01-21 03:12:00,
2013-01-21 03:23:00,31.0,29.0,29.25,NW,308,2.0,3.0,94,0.00,,,0.02,,2013-01-21 03:23:00,
2013-01-21 03:32:00,31.0,29.0,29.25,NW,308,1.0,3.0,94,0.00,,,0.02,,2013-01-21 03:32:00,
2013-01-21 03:42:00,31.0,29.0,29.25,NW,308,1.0,3.0,94,0.00,,,0.02,,2013-01-21 03:42:00,
2013-01-21 03:53:00,31.0,29.0,29.25,NW,308,0.0,3.0,94,0.00,,,0.02,,2013-01-21 03:53:00,
2013-01-21 04:02:00,31.0,29.0,29.25,WNW,293,1.0,3.0,94,0.00,,,0.02,,2013-01-21 04:02:00,
2013-01-21 04:22:00,31.0,29.0,29.25,WNW,293,0.0,3.0,94,0.00,,,0.02,,2013-01-21 04:22:00,
2013-01-21 04:32:00,31.0,29.0,29.25,WNW,293,1.0,3.0,94,0.00,,,0.02,,2013-01-21 04:32:00,
2013-01-21 04:42:00,31.0,29.0,29.25,WNW,293,1.0,3.0,94,0.00,,,0.02,,2013-01-21 04:42:00,
2013-01-21 04:53:00,31.0,29.0,29.25,WNW,293,1.0,3.0,94,0.00,,,0.02,,2013-01-21 04:53:00,
2013-01-21 05:03:00,31.0,29.0,29.26,WNW,293,1.0,3.0,94,0.00,,,0.02,,2013-01-21 05:03:00,
2013-01-21 05:12:00,31.0,29.0,29.26,WNW,293,1.0,3.0,94,0.00,,,0.02,,2013-01-21 05:12:00,
2013-01-21 05:22:00,31.0,29.0,29.26,WNW,293,1.0,3.0,94,0.00,,,0.02,,2013-01-21 05:22:00,
2013-01-21 05:33:00,31.0,29.0,29.26,WNW,293,1.0,3.0,94,0.00,,,0.02,,2013-01-21 05:33:00,
2013-01-21 05:42:00,31.0,29.0,29.26,WNW,293,1.0,3.0,94,0.00,,,0.02,,2013-01-21 05:42:00,
2013-01-21 05:53:00,31.0,29.0,29.25,WNW,293,0.0,2.0,94,0.00,,,0.02,,2013-01-21 05:53:00,
2013-01-21 06:02:00,31.0,29.0,29.25,WNW,293,0.0,1.0,94,0.00,,,0.02,,2013-01-21 06:02:00,
2013-01-21 06:12:00,31.0,29.0,29.25,WNW,293,0.0,1.0,94,0.00,,,0.02,,2013-01-21 06:12:00,
2013-01-21 06:22:00,31.0,29.0,29.26,WNW,293,0.0,2.0,94,0.00,,,0.02,,2013-01-21 06:22:00,
2013-01-21 06:32:00,31.0,29.0,29.26,WNW,293,0.0,1.0,94,0.00,,,0.02,,2013-01-21 06:32:00,
2013-01-21 06:42:00,31.0,29.0,29.26,WNW,293,0.0,1.0,94,0.00,,,0.02,,2013-01-21 06:42:00,
2013-01-21 06:53:00,31.0,29.0,29.26,WNW,293,0.0,2.0,94,0.00,,,0.02,,2013-01-21 06:53:00,
2013-01-21 07:02:00,31.0,29.0,29.26,WNW,293,0.0,0.0,94,0.00,,,0.02,,2013-01-21 07:02:00,
2013-01-21 07:12:00,31.0,29.0,29.26,WNW,293,0.0,0.0,94,0.00,,,0.02,,2013-01-21 07:12:00,
2013-01-21 07:22:00,31.0,29.0,29.27,WNW,293,0.0,0.0,94,0.00,,,0.02,,2013-01-21 07:22:00,
2013-01-21 07:32:00,31.0,29.0,29.27,WNW,293,0.0,2.0,94,0.00,,,0.02,,2013-01-21 07:32:00,
2013-01-21 07:42:00,31.0,29.0,29.27,WNW,293,0.0,2.0,94,0.00,,,0.02,,2013-01-21 07:42:00,
2013-01-21 07:53:00,31.0,29.0,29.27,WNW,293,0.0,3.0,94,0.00,,,0.02,,2013-01-21 07:53:00,
2013-01-21 08:02:00,31.0,29.0,29.28,WNW,293,2.0,3.0,94,0.00,,,0.02,,2013-01-21 08:02:00,
2013-01-21 08:12:00,31.0,29.0,29.28,WNW,293,2.0,3.0,94,0.00,,,0.02,,2013-01-21 08:12:00,
2013-01-21 08:22:00,31.0,29.0,29.28,WNW,293,0.0,3.0,94,0.00,,,0.02,,2013-01-21 08:22:00,
2013-01-21 08:32:00,31.0,29.0,29.29,WNW,293,1.0,3.0,94,0.00,,,0.02,,2013-01-21 08:32:00,
2013-01-21 08:42:00,31.0,29.0,29.29,WNW,293,1.0,3.0,94,0.00,,,0.02,,2013-01-21 08:42:00,
2013-01-21 08:53:00,31.0,29.0,29.29,WNW,293,1.0,3.0,93,0.00,,,0.02,,2013-01-21 08:53:00,
2013-01-21 09:02:00,31.0,29.0,29.30,WNW,293,2.0,3.0,93,0.00,,,0.02,,2013-01-21 09:02:00,
2013-01-21 09:11:00,31.0,29.0,29.30,WNW,293,2.0,3.0,93,0.00,,,0.02,,2013-01-21 09:11:00,
2013-01-21 09:22:00,31.0,29.0,29.31,WSW,255,0.0,3.0,93,0.00,,,0.02,,2013-01-21 09:22:00,
2013-01-21 09:32:00,31.0,29.0,29.31,West,273,1.0,5.0,93,0.00,,,0.02,,2013-01-21 09:32:00,
2013-01-21 09:42:00,31.0,29.0,29.31,West,273,1.0,5.0,93,0.00,,,0.02,,2013-01-21 09:42:00,
2013-01-21 09:53:00,31.0,29.0,29.31,West,272,1.0,3.0,92,0.00,,,0.02,,2013-01-21 09:53:00,
2013-01-21 10:01:00,31.0,29.0,29.31,West,272,1.0,3.0,92,0.00,,,0.02,,2013-01-21 10:01:00,
2013-01-21 10:11:00,31.0,29.0,29.31,West,272,1.0,3.0,92,0.00,,,0.02,,2013-01-21 10:11:00,
2013-01-21 10:22:00,32.0,30.0,29.31,West,272,1.0,3.0,92,0.00,,,0.02,,2013-01-21 10:22:00,
2013-01-21 10:32:00,32.0,30.0,29.32,WNW,283,1.0,3.0,92,0.00,,,0.02,,2013-01-21 10:32:00,
2013-01-21 10:42:00,32.0,30.0,29.32,WNW,283,1.0,3.0,92,0.00,,,0.02,,2013-01-21 10:42:00,
2013-01-21 10:52:00,32.0,29.0,29.32,WSW,256,2.0,3.0,90,0.00,,,0.02,,2013-01-21 10:52:00,
2013-01-21 11:02:00,33.0,31.0,29.33,WSW,256,1.0,3.0,91,0.00,,,0.02,,2013-01-21 11:02:00,
2013-01-21 11:12:00,33.0,31.0,29.33,WSW,256,1.0,3.0,91,0.00,,,0.02,,2013-01-21 11:12:00,
2013-01-21 11:22:00,33.0,30.0,29.33,West,265,1.0,3.0,90,0.00,,,0.02,,2013-01-21 11:22:00,
2013-01-21 11:32:00,33.0,30.0,29.33,West,265,1.0,3.0,90,0.00,,,0.02,,2013-01-21 11:32:00,
2013-01-21 11:42:00,33.0,30.0,29.33,West,265,1.0,3.0,90,0.00,,,0.02,,2013-01-21 11:42:00,
2013-01-21 11:53:00,33.0,30.0,29.33,West,264,2.0,5.0,89,0.00,,,0.02,,2013-01-21 11:53:00,
2013-01-21 12:02:00,33.0,30.0,29.33,WNW,283,1.0,6.0,88,0.00,,,0.02,,2013-01-21 12:02:00,
2013-01-21 12:12:00,33.0,30.0,29.33,WNW,283,1.0,6.0,88,0.00,,,0.02,,2013-01-21 12:12:00,
2013-01-21 12:22:00,34.0,31.0,29.34,West,269,1.0,6.0,88,0.00,,,0.02,,2013-01-21 12:22:00,
2013-01-21 12:32:00,34.0,31.0,29.34,WNW,289,3.0,5.0,88,0.00,,,0.02,,2013-01-21 12:32:00,
2013-01-21 12:42:00,34.0,31.0,29.34,WNW,289,3.0,5.0,88,0.00,,,0.02,,2013-01-21 12:42:00,
2013-01-21 12:53:00,35.0,32.0,29.34,WSW,254,1.0,3.0,87,0.00,,,0.02,,2013-01-21 12:53:00,
2013-01-21 13:02:00,36.0,32.0,29.34,West,259,1.0,3.0,85,0.00,,,0.02,,2013-01-21 13:02:00,
2013-01-21 13:12:00,36.0,32.0,29.34,West,259,1.0,3.0,85,0.00,,,0.02,,2013-01-21 13:12:00,
2013-01-21 13:22:00,35.0,30.0,29.34,WNW,298,2.0,3.0,83,0.01,,,0.02,,2013-01-21 13:22:00,
2013-01-21 13:32:00,35.0,31.0,29.34,WNW,298,1.0,3.0,84,0.02,,,0.03,,2013-01-21 13:32:00,
2013-01-21 13:42:00,35.0,31.0,29.34,WNW,298,1.0,3.0,84,0.02,,,0.03,,2013-01-21 13:42:00,
2013-01-21 13:53:00,36.0,32.0,29.34,West,272,3.0,7.0,84,0.03,,,0.05,,2013-01-21 13:53:00,
2013-01-21 14:02:00,36.0,31.0,29.35,WSW,239,1.0,6.0,83,0.04,,,0.06,,2013-01-21 14:02:00,
2013-01-21 14:12:00,36.0,31.0,29.35,WSW,239,1.0,6.0,83,0.04,,,0.06,,2013-01-21 14:12:00,
2013-01-21 14:22:00,37.0,32.0,29.35,SW,236,3.0,7.0,82,0.06,,,0.08,,2013-01-21 14:22:00,
2013-01-21 14:32:00,37.0,32.0,29.35,West,265,2.0,5.0,83,0.06,,,0.09,,2013-01-21 14:32:00,
2013-01-21 14:42:00,37.0,32.0,29.35,West,265,2.0,5.0,83,0.06,,,0.09,,2013-01-21 14:42:00,
2013-01-21 14:53:00,36.0,31.0,29.35,West,271,2.0,6.0,82,0.05,,,0.09,,2013-01-21 14:53:00,
2013-01-21 15:02:00,36.0,31.0,29.36,SW,231,3.0,5.0,82,0.04,,,0.09,,2013-01-21 15:02:00,
2013-01-21 15:12:00,36.0,31.0,29.36,SW,231,3.0,5.0,82,0.04,,,0.09,,2013-01-21 15:12:00,
2013-01-21 15:22:00,35.0,30.0,29.36,SW,231,2.0,6.0,82,0.02,,,0.09,,2013-01-21 15:22:00,
2013-01-21 15:32:00,35.0,30.0,29.37,West,274,3.0,5.0,82,0.02,,,0.09,,2013-01-21 15:32:00,
2013-01-21 15:42:00,35.0,30.0,29.37,West,274,3.0,5.0,82,0.02,,,0.09,,2013-01-21 15:42:00,
2013-01-21 15:53:00,35.0,30.0,29.37,West,274,1.0,3.0,83,0.02,,,0.09,,2013-01-21 15:53:00,
2013-01-21 16:02:00,34.0,29.0,29.37,West,274,2.0,3.0,83,0.02,,,0.10,,2013-01-21 16:02:00,
2013-01-21 16:12:00,34.0,29.0,29.37,West,274,2.0,3.0,83,0.02,,,0.10,,2013-01-21 16:12:00,
2013-01-21 16:23:00,34.0,30.0,29.38,West,274,1.0,2.0,85,0.02,,,0.10,,2013-01-21 16:23:00,
2013-01-21 16:32:00,34.0,30.0,29.38,West,274,2.0,3.0,86,0.02,,,0.10,,2013-01-21 16:32:00,
2013-01-21 16:43:00,34.0,30.0,29.38,West,274,2.0,3.0,86,0.02,,,0.10,,2013-01-21 16:43:00,
2013-01-21 16:53:00,33.0,29.0,29.39,West,274,2.0,3.0,86,0.02,,,0.11,,2013-01-21 16:53:00,
2013-01-21 17:02:00,33.0,30.0,29.39,West,274,2.0,3.0,87,0.01,,,0.11,,2013-01-21 17:02:00,
2013-01-21 17:12:00,33.0,30.0,29.39,West,274,2.0,3.0,87,0.01,,,0.11,,2013-01-21 17:12:00,
2013-01-21 17:22:00,32.0,29.0,29.40,West,274,0.0,2.0,87,0.01,,,0.11,,2013-01-21 17:22:00,
2013-01-21 17:32:00,32.0,29.0,29.40,West,274,0.0,1.0,88,0.01,,,0.11,,2013-01-21 17:32:00,
2013-01-21 17:42:00,32.0,29.0,29.40,West,274,0.0,1.0,88,0.01,,,0.11,,2013-01-21 17:42:00,
2013-01-21 17:53:00,31.0,28.0,29.41,West,274,1.0,3.0,89,0.00,,,0.11,,2013-01-21 17:53:00,
2013-01-21 18:02:00,31.0,28.0,29.41,West,274,0.0,2.0,90,0.00,,,0.11,,2013-01-21 18:02:00,
2013-01-21 18:12:00,31.0,28.0,29.41,West,274,0.0,2.0,90,0.00,,,0.11,,2013-01-21 18:12:00,
2013-01-21 18:22:00,30.0,27.0,29.42,West,274,0.0,2.0,89,0.00,,,0.11,,2013-01-21 18:22:00,
2013-01-21 18:33:00,30.0,27.0,29.43,West,274,0.0,2.0,90,0.00,,,0.11,,2013-01-21 18:33:00,
2013-01-21 18:42:00,30.0,27.0,29.43,West,274,0.0,2.0,90,0.00,,,0.11,,2013-01-21 18:42:00,
2013-01-21 18:53:00,30.0,28.0,29.43,West,274,0.0,2.0,91,0.00,,,0.11,,2013-01-21 18:53:00,
2013-01-21 19:02:00,30.0,28.0,29.44,West,274,1.0,3.0,91,0.00,,,0.11,,2013-01-21 19:02:00,
2013-01-21 19:12:00,30.0,28.0,29.44,West,274,1.0,3.0,91,0.00,,,0.11,,2013-01-21 19:12:00,
2013-01-21 19:22:00,30.0,28.0,29.45,West,274,1.0,3.0,92,0.00,,,0.11,,2013-01-21 19:22:00,
2013-01-21 19:32:00,31.0,29.0,29.45,West,274,0.0,2.0,92,0.00,,,0.11,,2013-01-21 19:32:00,
2013-01-21 19:42:00,31.0,29.0,29.45,West,274,0.0,2.0,92,0.00,,,0.11,,2013-01-21 19:42:00,
2013-01-21 19:53:00,31.0,29.0,29.45,West,274,0.0,0.0,92,0.00,,,0.11,,2013-01-21 19:53:00,
2013-01-21 20:02:00,31.0,29.0,29.45,West,274,0.0,1.0,92,0.00,,,0.11,,2013-01-21 20:02:00,
2013-01-21 20:12:00,31.0,29.0,29.45,West,274,0.0,1.0,92,0.00,,,0.11,,2013-01-21 20:12:00,
2013-01-21 20:22:00,31.0,29.0,29.45,West,274,0.0,1.0,92,0.00,,,0.11,,2013-01-21 20:22:00,
2013-01-21 20:32:00,31.0,29.0,29.46,West,274,0.0,2.0,92,0.00,,,0.11,,2013-01-21 20:32:00,
2013-01-21 20:42:00,31.0,29.0,29.46,West,274,0.0,2.0,92,0.00,,,0.11,,2013-01-21 20:42:00,
2013-01-21 20:53:00,31.0,29.0,29.46,West,274,0.0,1.0,92,0.00,,,0.11,,2013-01-21 20:53:00,
2013-01-21 21:02:00,31.0,29.0,29.47,West,274,1.0,2.0,92,0.00,,,0.11,,2013-01-21 21:02:00,
2013-01-21 21:12:00,31.0,29.0,29.47,West,274,1.0,2.0,92,0.00,,,0.11,,2013-01-21 21:12:00,
2013-01-21 21:22:00,31.0,29.0,29.47,West,274,1.0,2.0,92,0.00,,,0.11,,2013-01-21 21:22:00,
2013-01-21 21:32:00,31.0,29.0,29.47,West,274,1.0,2.0,92,0.00,,,0.11,,2013-01-21 21:32:00,
2013-01-21 21:42:00,31.0,29.0,29.47,West,274,1.0,2.0,92,0.00,,,0.11,,2013-01-21 21:42:00,
2013-01-21 21:53:00,31.0,29.0,29.47,West,274,1.0,3.0,92,0.00,,,0.11,,2013-01-21 21:53:00,
2013-01-21 22:02:00,30.0,28.0,29.47,West,274,0.0,1.0,92,0.00,,,0.11,,2013-01-21 22:02:00,
2013-01-21 22:11:00,30.0,28.0,29.47,West,274,0.0,1.0,92,0.00,,,0.11,,2013-01-21 22:11:00,
2013-01-21 22:22:00,30.0,28.0,29.47,West,274,0.0,2.0,91,0.00,,,0.11,,2013-01-21 22:22:00,
2013-01-21 22:32:00,29.0,27.0,29.47,West,274,0.0,2.0,92,0.00,,,0.11,,2013-01-21 22:32:00,
2013-01-21 22:42:00,29.0,27.0,29.47,West,274,0.0,2.0,92,0.00,,,0.11,,2013-01-21 22:42:00,
2013-01-21 22:53:00,29.0,27.0,29.47,West,274,0.0,3.0,93,0.00,,,0.11,,2013-01-21 22:53:00,
2013-01-21 23:02:00,29.0,27.0,29.47,West,274,1.0,2.0,93,0.00,,,0.11,,2013-01-21 23:02:00,
2013-01-21 23:12:00,29.0,27.0,29.47,West,274,1.0,2.0,93,0.00,,,0.11,,2013-01-21 23:12:00,
2013-01-21 23:22:00,29.0,27.0,29.47,West,273,0.0,2.0,93,0.00,,,0.11,,2013-01-21 23:22:00,
2013-01-21 23:32:00,28.0,26.0,29.47,West,273,0.0,2.0,93,0.00,,,0.11,,2013-01-21 23:32:00,
2013-01-21 23:42:00,28.0,26.0,29.47,West,273,0.0,2.0,93,0.00,,,0.11,,2013-01-21 23:42:00,
2013-01-21 23:53:00,28.0,26.0,29.47,West,273,0.0,3.0,93,0.00,,,0.11,,2013-01-21 23:53:00,